Hourly Weather Yudino

Today, 2 July, Thursday

Time Temperature Precipitation Wind Pressure Humidity
00:00 +19°C° 0 mm 3 mps 752 mmHg 73%
01:00 +19°C° 0 mm 3 mps 752 mmHg 72%
02:00 +18°C° 0 mm 3 mps 752 mmHg 70%
03:00 +18°C° 0 mm 3 mps 751 mmHg 69%
04:00 +18°C° 0 mm 3 mps 751 mmHg 68%
05:00 +18°C° 0 mm 3 mps 750 mmHg 66%
06:00 +19°C° 0 mm 3 mps 751 mmHg 74%
07:00 +20°C° 0.5 mm 3 mps 750 mmHg 71%
08:00 +21°C° 0.5 mm 3 mps 750 mmHg 68%
09:00 +24°C° 0.5 mm 3 mps 749 mmHg 65%
10:00 +26°C° 0.3 mm 4 mps 749 mmHg 59%
11:00 +29°C° 0.3 mm 4 mps 748 mmHg 53%
12:00 +32°C° 0 mm 4 mps 748 mmHg 47%
13:00 +33°C° 0 mm 4 mps 747 mmHg 44%
14:00 +34°C° 0 mm 4 mps 747 mmHg 40%
15:00 +36°C° 0 mm 4 mps 747 mmHg 37%
16:00 +35°C° 0 mm 3 mps 746 mmHg 40%
17:00 +35°C° 0 mm 3 mps 746 mmHg 44%
18:00 +35°C° 0 mm 2 mps 746 mmHg 47%
19:00 +31°C° 0 mm 2 mps 746 mmHg 54%
20:00 +29°C° 0 mm 2 mps 746 mmHg 62%
21:00 +27°C° 0 mm 2 mps 746 mmHg 70%
22:00 +26°C° 0 mm 2 mps 746 mmHg 73%
23:00 +25°C° 0 mm 2 mps 746 mmHg 76%

Tomorrow, 3 July, Friday

Time Temperature Precipitation Wind Pressure Humidity
00:00 +24°C° 0 mm 2 mps 746 mmHg 79%
01:00 +23°C° 0 mm 2 mps 746 mmHg 84%
02:00 +23°C° 0 mm 2 mps 745 mmHg 89%
03:00 +22°C° 0 mm 1 mps 745 mmHg 95%
04:00 +21°C° 0.2 mm 2 mps 746 mmHg 93%
05:00 +23°C° 0.2 mm 2 mps 746 mmHg 92%
06:00 +23°C° 0.2 mm 2 mps 746 mmHg 91%
07:00 +24°C° 0 mm 2 mps 746 mmHg 84%
08:00 +26°C° 0 mm 2 mps 746 mmHg 77%
09:00 +27°C° 0 mm 2 mps 746 mmHg 70%
10:00 +28°C° 0 mm 2 mps 746 mmHg 67%
11:00 +28°C° 0 mm 3 mps 746 mmHg 64%
12:00 +29°C° 0 mm 3 mps 746 mmHg 60%
13:00 +29°C° 0 mm 3 mps 746 mmHg 57%
14:00 +30°C° 0 mm 2 mps 746 mmHg 53%
15:00 +30°C° 0 mm 2 mps 747 mmHg 49%
16:00 +29°C° 0 mm 2 mps 747 mmHg 54%
17:00 +28°C° 0 mm 2 mps 746 mmHg 59%
18:00 +27°C° 0 mm 2 mps 746 mmHg 64%
19:00 +25°C° 0.1 mm 1 mps 747 mmHg 71%
20:00 +24°C° 0.1 mm 1 mps 747 mmHg 78%
21:00 +23°C° 0.1 mm 1 mps 747 mmHg 84%
22:00 +22°C° 0 mm 1 mps 747 mmHg 88%
23:00 +21°C° 0 mm 1 mps 747 mmHg 91%

Day after tomorrow, 4 July, Saturday

Time Temperature Precipitation Wind Pressure Humidity
00:00 +20°C° 0 mm 1 mps 747 mmHg 94%
01:00 +20°C° 0 mm 1 mps 747 mmHg 95%
02:00 +20°C° 0 mm 1 mps 746 mmHg 96%
03:00 +19°C° 0 mm 1 mps 746 mmHg 97%
04:00 +20°C° 0 mm 1 mps 747 mmHg 95%
05:00 +21°C° 0 mm 1 mps 747 mmHg 94%
06:00 +20°C° 0 mm 2 mps 747 mmHg 92%
07:00 +23°C° 0 mm 2 mps 746 mmHg 84%
08:00 +25°C° 0 mm 2 mps 746 mmHg 76%
09:00 +26°C° 0 mm 2 mps 746 mmHg 67%
10:00 +27°C° 0 mm 2 mps 746 mmHg 62%
11:00 +28°C° 0 mm 2 mps 746 mmHg 57%
12:00 +30°C° 0 mm 3 mps 746 mmHg 52%
13:00 +30°C° 0 mm 3 mps 746 mmHg 50%
14:00 +30°C° 0 mm 3 mps 746 mmHg 48%
15:00 +31°C° 0 mm 3 mps 746 mmHg 47%
16:00 +30°C° 0 mm 3 mps 746 mmHg 49%
17:00 +30°C° 0 mm 2 mps 746 mmHg 51%
18:00 +29°C° 0 mm 2 mps 746 mmHg 53%
19:00 +27°C° 0 mm 2 mps 746 mmHg 62%
20:00 +25°C° 0 mm 2 mps 746 mmHg 71%
21:00 +23°C° 0 mm 2 mps 746 mmHg 80%
22:00 +21°C° 0 mm 2 mps 746 mmHg 85%
23:00 +21°C° 0 mm 1 mps 746 mmHg 90%

5 July, Sunday

Time Temperature Precipitation Wind Pressure Humidity
00:00 +20°C° 0 mm 1 mps 746 mmHg 95%
01:00 +20°C° 0 mm 1 mps 747 mmHg 95%
02:00 +20°C° 0 mm 1 mps 747 mmHg 96%
03:00 +19°C° 0 mm 1 mps 747 mmHg 97%
04:00 +20°C° 0 mm 1 mps 747 mmHg 95%
05:00 +20°C° 0 mm 1 mps 747 mmHg 93%
06:00 +21°C° 0 mm 1 mps 747 mmHg 91%
07:00 +23°C° 0 mm 1 mps 747 mmHg 85%
08:00 +24°C° 0 mm 1 mps 747 mmHg 78%
09:00 +26°C° 0 mm 1 mps 747 mmHg 71%
10:00 +27°C° 0 mm 1 mps 747 mmHg 67%
11:00 +28°C° 0 mm 1 mps 747 mmHg 62%
12:00 +29°C° 0 mm 2 mps 747 mmHg 57%
13:00 +29°C° 0.1 mm 2 mps 747 mmHg 55%
14:00 +29°C° 0.1 mm 2 mps 747 mmHg 53%
15:00 +30°C° 0.1 mm 2 mps 746 mmHg 51%
16:00 +29°C° 0.2 mm 2 mps 746 mmHg 56%
17:00 +28°C° 0.2 mm 2 mps 746 mmHg 60%
18:00 +28°C° 0.2 mm 2 mps 746 mmHg 64%
19:00 +26°C° 0.3 mm 2 mps 746 mmHg 73%
20:00 +24°C° 0.3 mm 2 mps 746 mmHg 82%
21:00 +21°C° 0.3 mm 2 mps 746 mmHg 91%
22:00 +21°C° 1.1 mm 2 mps 746 mmHg 93%
23:00 +20°C° 1.1 mm 2 mps 746 mmHg 95%

6 July, Monday

Time Temperature Precipitation Wind Pressure Humidity
00:00 +21°C° 1.1 mm 1 mps 746 mmHg 97%
01:00 +20°C° 0.3 mm 1 mps 746 mmHg 97%
02:00 +20°C° 0.3 mm 1 mps 746 mmHg 97%
03:00 +18°C° 0.3 mm 0 mps 746 mmHg 97%
04:00 +20°C° 0.5 mm 1 mps 745 mmHg 96%
05:00 +20°C° 0.5 mm 1 mps 745 mmHg 96%
06:00 +20°C° 0.5 mm 1 mps 745 mmHg 95%
07:00 +21°C° 0.2 mm 1 mps 745 mmHg 90%
08:00 +22°C° 0.2 mm 1 mps 746 mmHg 85%
09:00 +23°C° 0.2 mm 2 mps 746 mmHg 80%
10:00 +24°C° 0.2 mm 2 mps 746 mmHg 73%
11:00 +26°C° 0.2 mm 2 mps 746 mmHg 66%
12:00 +27°C° 0.2 mm 2 mps 746 mmHg 59%
13:00 +27°C° 0.2 mm 2 mps 745 mmHg 60%
14:00 +27°C° 0.2 mm 2 mps 745 mmHg 61%
15:00 +27°C° 0.2 mm 2 mps 745 mmHg 62%
16:00 +26°C° 0.4 mm 3 mps 745 mmHg 66%
17:00 +25°C° 0.4 mm 3 mps 745 mmHg 70%
18:00 +24°C° 0.4 mm 3 mps 745 mmHg 74%
19:00 +22°C° 0 mm 3 mps 745 mmHg 79%
20:00 +20°C° 0 mm 2 mps 745 mmHg 85%
21:00 +19°C° 0 mm 2 mps 745 mmHg 90%
22:00 +18°C° 0 mm 2 mps 745 mmHg 92%
23:00 +17°C° 0 mm 2 mps 745 mmHg 95%

7 July, Tuesday

Time Temperature Precipitation Wind Pressure Humidity
00:00 +16°C° 0 mm 1 mps 745 mmHg 98%
01:00 +16°C° 0 mm 1 mps 745 mmHg 98%
02:00 +15°C° 0 mm 1 mps 745 mmHg 98%
03:00 +15°C° 0 mm 1 mps 745 mmHg 98%
04:00 +16°C° 0 mm 1 mps 745 mmHg 96%
05:00 +16°C° 0 mm 1 mps 745 mmHg 95%
06:00 +18°C° 0 mm 1 mps 745 mmHg 93%
07:00 +20°C° 0 mm 1 mps 745 mmHg 86%
08:00 +21°C° 0 mm 1 mps 746 mmHg 80%
09:00 +23°C° 0 mm 1 mps 746 mmHg 73%
10:00 +24°C° 0 mm 1 mps 746 mmHg 67%
11:00 +26°C° 0 mm 2 mps 746 mmHg 61%
12:00 +27°C° 0 mm 2 mps 746 mmHg 55%
13:00 +27°C° 0.2 mm 2 mps 746 mmHg 57%
14:00 +27°C° 0.2 mm 3 mps 746 mmHg 59%
15:00 +27°C° 0.2 mm 3 mps 746 mmHg 61%
16:00 +26°C° 0.7 mm 3 mps 746 mmHg 67%
17:00 +26°C° 0.7 mm 3 mps 746 mmHg 73%
18:00 +25°C° 0.7 mm 3 mps 747 mmHg 79%
19:00 +22°C° 0.2 mm 3 mps 747 mmHg 82%
20:00 +21°C° 0.2 mm 3 mps 747 mmHg 86%
21:00 +20°C° 0.2 mm 3 mps 747 mmHg 89%
22:00 +19°C° 0 mm 2 mps 747 mmHg 89%
23:00 +18°C° 0 mm 2 mps 747 mmHg 89%
Show more